COSMOS 249 DEB, 3793

Orbit data source: Space-Track

COSMOS 249 DEB, 3793 is space debris in LEO originally from a launch on Sun, 20 Oct 1968 UTC launched from the Tyuratam Missile And Space Complex (TTMTR). Debris objects in space refer to the collection of defunct objects orbiting the Earth. Examples of debris include non-operational satellites, rocket bodies, and fragments generated from explosions, collisions, or faulty payload assembly.

Loading next visibility...
Identifier
3793, 1968-091BA
Orbit
LEO
Country
Flag of CISCIS
Related business
Manufacturer
Unknown
Mission
Spacecraft
Bus & Motor
Unknown
Mass
Unknown
Launch date (UTC)
1968-10-20 (57 years ago)
Launch vehicle
Unknown
Launch site
Tyuratam Missile And Space Complex (TTMTR)
Object type
Payload
Rocket body
Debris
Shape & HBR
Unknown shape, 1.1 m
Radar Cross Section
Small (<0.1 m²)

Expand to show TLE details & history
Last TLE update: 1 day ago

TLE from 1 day ago
0 COSMOS 249 DEB
1 03793U 68091BA  26034.94613360  .00001780  00000-0  17607-2 0  9992
2 03793  62.2249 234.8061 0599971 302.3985  52.0312 13.21125575683779
Epoch: 2026-02-03T22:42Z
TLE epoch observation values (Epoch: 2026-02-03T22:42:25.943Z)
Latitude
-0°
Longitude
120.07823°
Altitude
920.934 km
Speed
7.518 km/s
True Right ascension
15h 39m 13s
True Declination
0° 00' 00"
Sunlit
Object was in daylight at epoch
Visualization orbit readout
Latitude
Unknown
Longitude
Unknown
Altitude
Unknown
Speed
Unknown
Apparent Right ascension
Unknown
Apparent Declination
Unknown
Sunlit
N/A
Visualization observer readout
Local Sidereal Time
01:21:10
Azimuth
Unknown
Elevation
Unknown
Doppler factor
Unknown
Orbital elements
Apogee altitude
1,632.838 km
Perigee altitude
725.977 km
Semi-major axis
7,557.545 km
Eccentricity
0.06
Inclination
62.2249°
RAAN
234.8061°
Arg. of periapsis
302.3985°
True anomaly
57.70351°
Mean anomaly
52.0312°
Eccentric anomaly
54.84164°
Mean motion
3.30348 °/min
Orbital period
108.98 mins
BSTAR
0.0017607
Loading maneuver chart data...
Computing Atmospheric mass density...

Documentation

Showing up to 5 results
|